ISS (ZARYA)

Last updated on Tue Oct 14 2025 00:02:10 GMT+0000 (Coordinated Universal Time)

1 25544U 98067A 25286.49377713 .00012973 00000+0 23569-3 0 9993 2 25544 51.6333 80.7348 0000790 262.0329 98.0571 15.49903869533514
UTC large
Height (km)
Speed (km/s)
/
Latitude / Longitude
Inclination (degrees)
Orbital Period (minutes)
Azimuth
Elevation
Range (km)
Doppler Factor

Next 0 passes for location: London (51.5072 / 0.1276)

Sorry there are no passes over London.